7 * 24
多渠道服务支持
INTELSAT 3-F6 是一颗由国际通信卫星组织(INTELSAT)运营的通信卫星,于1971年发射,是INTELSAT III系列的一部分。该卫星主要用于跨大西洋的电视和电话信号传输,显著提升了国际通信能力。它运行在地球同步轨道,位于西经62度的位置,搭载C波段转发器,为北美和欧洲之间提供稳定的通信服务。INTELSAT 3-F6 在通信卫星发展史上具有重要意义,标志着卫星通信技术的成熟与广泛应用。
| 数据来源 | 国际轨道数据 |
| 星历时间: | 2025-12-14T13:52:33+0800 1天前 查看轨道信息 |
| 半长轴: | 42480.143km |
| 偏心率: | 0.0010819 |
| 轨道倾角: | 0.604° |
| 近地点辐角 | 239.981° |
| 升交点赤经 | 96.084° |
| 平近点角 | 49.210° |
| 近地点: | 36056.048km |
| 远地点: | 36147.968km |
| 周期: | 1452.241分钟 |
| 每日圈数: | 0.991571 |